Location: Arnolds Mill
(42.3415°N, 73.5951°W)
Time: 05:51:42
(UTC+00:00)

Oscar 11 - Pass Details

Date: 09 May 2026
Orbit: 591 x 601 km, 97.8° (Epoch: 11 June)

Event Time Altitude Azimuth Distance (km) Brightness Sun altitude
Rises 07:29:38 0° 28° (NNE) 2,859 12.0 -20.0°
Reaches altitude 10° 07:32:21 10° 46° (NE) 1,950 10.8 -19.6°
Maximum altitude 07:35:26 19° 93° (E) 1,427 9.3 -19.3°
Drops below altitude 10° 07:38:30 10° 140° (SE) 1,937 9.5 -18.9°
Enters shadow 07:39:53 - 151° (SSE) 2,379 9.9 -18.7°
